Hamilton Island, Australia

5:50 AM AEST on February 20, 2018 (GMT +1000)
Hamilton Island

Weather History for YBHM - August, 2013

Change the Weather History Date:

Saturday, August 10, 2013

  Actual Average Record
Temperature  
Mean Temperature 67 °F -  
Max Temperature 71 °F - - ()
Min Temperature 63 °F - - ()
Cooling Degree Days 2    
Growing Degree Days 17 (Base 50)    
Moisture  
Dew Point 60 °F    
Average Humidity 77    
Maximum Humidity 94    
Minimum Humidity 61    
Precipitation  
Precipitation 0.00 in - - ()
Sea Level Pressure  
Sea Level Pressure 30.04 in    
Wind  
Wind Speed 11 mph ()    
Max Wind Speed 15 mph    
Max Gust Speed -    
T = Trace of Precipitation, MM = Missing Value Source: Averaged Metar Reports

Daily Weather History Graph

Daily Weather History Graph

Search for Another Location

Airport or City:

Trip Planner

Search our weather history database for the weather conditions in past years. The results will help you decide how hot, cold, wet, or windy it might be!

Date:

Astronomy

Aug. 10, 2013 Rise Set
Actual Time 6:29 AM AEST 5:49 PM AEST
Civil Twilight 6:06 AM AEST 6:12 PM AEST
Nautical Twilight 5:40 AM AEST 6:38 PM AEST
Astronomical Twilight 5:14 AM AEST 7:04 PM AEST
Moon 8:14 AM AEST (8/10) 8:41 PM AEST (8/10)
Length of Visible Light 12h 05m
Length of Day
11h 19m
Waxing Crescent, 10% of the Moon is Illuminated
Aug 10
Waxing Crescent
Aug 14
First Quarter
Aug 21
Full
Aug 28
Last Quarter
Sep 5
New

Hourly Weather History & Observations

Time (AEST) Temp. Dew Point Humidity Pressure Visibility Wind Dir Wind Speed Gust Speed Precip Events Conditions
12:00 AM 66 °F 57 °F 64% 30.03 in - SE 13.8 mph - -  
12:00 AM 66.2 °F 57.2 °F 73% 30.04 in - SE 13.8 mph - N/A   Unknown
12:30 AM 66.2 °F 55.4 °F 68% 30.04 in - SE 15.0 mph - N/A   Unknown
1:00 AM 64.4 °F 59.0 °F 83% 30.04 in - South 11.5 mph - N/A   Unknown
1:30 AM 64.4 °F 57.2 °F 77% 30.01 in - South 11.5 mph - N/A   Unknown
2:00 AM 64.4 °F 57.2 °F 77% 30.01 in - South 10.4 mph - N/A   Unknown
2:30 AM 64.4 °F 59.0 °F 83% 30.01 in - South 11.5 mph - N/A   Unknown
3:00 AM 64 °F 57 °F 73% 30.01 in - South 11.5 mph - -  
3:00 AM 64.4 °F 57.2 °F 77% 30.01 in - South 11.5 mph - N/A   Unknown
3:30 AM 64.4 °F 57.2 °F 77% 30.01 in - South 10.4 mph - N/A   Unknown
4:00 AM 62.6 °F 57.2 °F 82% 30.01 in - South 9.2 mph - N/A   Unknown
4:30 AM 62.6 °F 57.2 °F 82% 30.01 in - South 8.1 mph - N/A   Unknown
5:00 AM 62.6 °F 57.2 °F 82% 30.01 in - South 9.2 mph - N/A   Unknown
5:30 AM 64.4 °F 57.2 °F 77% 30.01 in - South 10.4 mph - N/A   Unknown
6:00 AM 64 °F 56 °F 70% 30.04 in - SSE 10.4 mph - -  
6:00 AM 64.4 °F 57.2 °F 77% 30.04 in - SSE 10.4 mph - N/A   Unknown
6:30 AM 64.4 °F 57.2 °F 77% 30.04 in - SSE 11.5 mph - N/A   Unknown
7:00 AM 64.4 °F 57.2 °F 77% 30.04 in - South 10.4 mph - N/A   Unknown
7:30 AM 66.2 °F 57.2 °F 73% 30.06 in - SSE 9.2 mph - N/A   Unknown
8:00 AM 68.0 °F 57.2 °F 68% 30.06 in - SSE 11.5 mph - N/A   Unknown
8:30 AM 68.0 °F 59.0 °F 73% 30.06 in - SSE 12.7 mph - N/A   Unknown
9:00 AM 68.0 °F 59.0 °F 73% 30.06 in - SSE 13.8 mph - N/A   Unknown
9:30 AM 68.0 °F 59.0 °F 73% 30.06 in - SSE 13.8 mph - N/A   Unknown
10:00 AM 68.0 °F 59.0 °F 73% 30.06 in - SSE 12.7 mph - N/A   Unknown
10:30 AM 69.8 °F 59.0 °F 68% 30.06 in - SSE 12.7 mph - N/A   Unknown
11:00 AM 69.8 °F 59.0 °F 68% 30.06 in - SSE 12.7 mph - N/A   Unknown
11:30 AM 69.8 °F 59.0 °F 68% 30.06 in - SSE 12.7 mph - N/A   Unknown
12:00 PM 70 °F 59 °F 61% 30.06 in - SSE 13.8 mph - -  
12:00 PM 69.8 °F 59.0 °F 68% 30.06 in - SSE 13.8 mph - N/A   Unknown
12:30 PM 69.8 °F 60.8 °F 73% 30.04 in - SSE 12.7 mph - N/A   Unknown
1:00 PM 69.8 °F 60.8 °F 73% 30.04 in - SSE 13.8 mph - N/A   Unknown
1:30 PM 69.8 °F 60.8 °F 73% 30.04 in - SSE 12.7 mph - N/A   Unknown
2:00 PM 71.6 °F 62.6 °F 73% 30.04 in - SSE 11.5 mph - N/A   Unknown
2:30 PM 69.8 °F 62.6 °F 78% 30.01 in - SSE 13.8 mph - N/A   Unknown
3:00 PM 71 °F 60 °F 61% 30.02 in - ESE 11.5 mph - -  
3:00 PM 69.8 °F 60.8 °F 73% 30.01 in - ESE 11.5 mph - N/A   Unknown
3:30 PM 69.8 °F 59.0 °F 68% 30.01 in - ESE 11.5 mph - N/A   Unknown
4:00 PM 69.8 °F 60.8 °F 73% 30.01 in - ESE 11.5 mph - N/A   Unknown
4:30 PM 69.8 °F 60.8 °F 73% 30.01 in - ESE 11.5 mph - N/A   Unknown
5:00 PM 68.0 °F 60.8 °F 78% 30.01 in - ESE 11.5 mph - N/A   Unknown
5:30 PM 68.0 °F 60.8 °F 78% 30.04 in - ESE 10.4 mph - N/A   Unknown
6:00 PM 67 °F 61 °F 76% 30.04 in - ESE 10.4 mph - -  
6:00 PM 66.2 °F 60.8 °F 83% 30.04 in - ESE 10.4 mph - N/A   Unknown
6:30 PM 66.2 °F 62.6 °F 88% 30.04 in - SE 11.5 mph - N/A   Unknown
7:00 PM 66.2 °F 62.6 °F 88% 30.04 in - ESE 10.4 mph - N/A   Unknown
7:30 PM 66.2 °F 62.6 °F 88% 30.06 in - ESE 10.4 mph - N/A   Unknown
8:00 PM 66.2 °F 62.6 °F 88% 30.06 in - SE 10.4 mph - N/A   Unknown
8:30 PM 66.2 °F 62.6 °F 88% 30.06 in - SE 10.4 mph - N/A   Unknown
9:00 PM 66 °F 63 °F 87% 30.09 in - SE 10.4 mph - -  
9:00 PM 66.2 °F 62.6 °F 88% 30.09 in - SE 10.4 mph - N/A   Unknown
9:30 PM 66.2 °F 62.6 °F 88% 30.09 in - SE 10.4 mph - N/A   Unknown
10:00 PM 66.2 °F 64.4 °F 94% 30.09 in - SSE 8.1 mph - N/A   Unknown
10:30 PM 66.2 °F 64.4 °F 94% 30.09 in - SE 6.9 mph - N/A   Unknown
11:00 PM 66.2 °F 64.4 °F 94% 30.09 in - SE 6.9 mph - N/A   Unknown